TITAN 3C TRANSTAGE DEB, 1915

Orbit data source: Space-Track

TITAN 3C TRANSTAGE DEB, 1915 is space debris in LEO originally from a launch on Fri, 15 Oct 1965 UTC launched from the Air Force Eastern Test Range (AFETR). Debris objects in space refer to the collection of defunct objects orbiting the Earth. Examples of debris include non-operational satellites, rocket bodies, and fragments generated from explosions, collisions, or faulty payload assembly.

Loading next visibility...
TITAN 3C TRANSTAGE DEB details
Identifier
1915, 1965-082FZ
Orbit
LEO
Last TLE update8 hours ago
Origin
Flag of USUSAF SSD (US)
ManufacturerUnknown
MissionSpacecraft
Bus & MotorUnknown
MassUnknown
Launch date (UTC)
1965-10-15 (59 years ago)
Launch vehicleUnknown
Launch site
Air Force Eastern Test Range (AFETR)
Object type
Payload
Rocket body
Debris
Shape & HBRUnknown
Radar Cross SectionSmall (<0.1 m²)

Expand to show TLE details & history

TLE from 8 hours ago
0 TITAN 3C TRANSTAGE DEB
1  1915U 65082FZ  25023.42214735  .00001495  00000-0  31088-3 0  9999
2  1915  31.8776  55.5450 0029018 352.2697   7.7493 14.57794173141743
Epoch: 2025-01-23T10:07Z
Definitive object data (Epoch: 2025-01-23T10:07:53.531Z)
Latitude0.00002°
Longitude140.57209°
Altitude678.587 km
Speed7.53 km/s
True Right ascension03h 42m 10s
True Declination0° 00' 00"
Sunlit
Object was in daylight at TLE epoch
Visualization TLE readout
Latitude-1.57141°
Longitude136.04497°
Altitude678.623 km
Speed7.53 km/s
Apparent Right ascension05h 03m 41s
Apparent Declination-22° 29' 52"
Sunlit
Object is in daylight
Visualization observer readout
Local Sidereal Time19:33:00
Azimuth72.383° E
Elevation-53.997°
Doppler factor1
Orbital elements
Apogee altitude724.481 km
Perigee altitude683.379 km
Semi-major axis7,082.067 km
Eccentricity0.0029018
Inclination31.8776°
RAAN55.545°
Arg. of periapsis352.2697°
True anomaly7.7943°
Mean anomaly7.7493°
Eccentric anomaly7.77178°
Mean motion3.64169 °/min
BSTAR0.00031088
Orbital period98.86 mins
Loading maneuver chart data...

TITAN 3C TRANSTAGE DEB Visibility forecast

Observer location: undefined°, undefined

Span
Click to sort rows by Start time (UTC) header in descending order
Start Az.
Max El. time (UTC)
Max El. Az.
Max El.
End time (UTC)
End Az.
7 mins2025-01-24 06:06:08.366Z211.474° SW2025-01-24 06:09:08.366Z172.192° S20.638°2025-01-24 06:13:08.366Z115.623° SE
7 mins2025-01-24 07:51:08.366Z226.659° WSW2025-01-24 07:54:08.366Z168.58° S27.965°2025-01-24 07:58:08.366Z116.05° SE
6 mins2025-01-24 09:35:08.366Z237.179° WSW2025-01-24 09:38:08.366Z188.692° SSW23.661°2025-01-24 09:41:08.366Z144.742° SSE
|